VE3KSR Weather Reports


Display with metric or nautical units.
time (UTC)temp
F
wind
direction
speed
MPH
gust
MPH
rain 1hr
in
rain 24hr
in
rain mn
in
humidity
%
barometer
mb
20260509010805 46 0 0.0 0.0 5.64 0.00 0.00 65 1018.0
20260509010305 45 0 0.0 0.0 5.64 0.00 0.00 65 1017.9
20260509005805 45 0 0.0 0.0 5.64 0.00 0.00 64 1017.9
20260509005306 46 0 0.0 0.0 5.64 0.00 0.00 64 1017.9
20260509004805 46 0 0.0 0.0 5.64 0.00 0.00 64 1017.9
20260509004305 47 0 0.0 0.0 5.64 0.00 0.00 64 1017.9
20260509003805 50 0 0.0 0.0 5.64 0.00 0.00 64 1018.0
20260509003305 43 0 0.0 0.0 5.64 0.00 0.00 64 1018.0
20260509002805 45 0 0.0 0.0 5.64 0.00 0.00 64 1018.0
20260509002306 46 0 0.0 0.0 5.64 0.00 0.00 64 1018.0
20260509001805 41 0 0.0 0.0 5.64 0.00 0.00 64 1018.2
20260509001305 43 0 0.0 0.0 5.64 0.00 0.00 62 1018.0
20260509000805 46 0 0.0 0.0 5.64 0.00 0.00 61 1018.0
20260509000305 47 0 0.0 0.0 5.64 0.00 0.00 61 1018.0
20260508235805 47 0 0.0 0.0 5.64 0.00 0.00 60 1018.1
20260508235306 48 0 0.0 0.0 5.64 0.00 0.00 59 1018.0
20260508234805 48 0 0.0 0.0 5.64 0.00 0.00 59 1018.0
20260508234305 49 0 0.0 0.0 5.64 0.00 0.00 58 1018.0
20260508233805 50 0 0.0 0.0 5.64 0.00 0.00 56 1018.0
20260508233305 51 0 0.0 0.0 5.64 0.00 0.00 54 1017.9
20260508232805 51 0 0.0 0.0 5.64 0.00 0.00 49 1018.0
20260508232307 51 0 0.0 0.0 5.64 0.00 0.00 38 1018.0
20260508231805 51 0 0.0 0.0 5.64 0.00 0.00 35 1018.0
20260508231305 51 0 0.0 0.0 5.64 0.00 0.00 34 1018.0
20260508230805 51 0 0.0 0.0 5.64 0.00 0.00 34 1018.0
20260508230305 51 0 0.0 0.0 5.64 0.00 0.00 37 1018.0
20260508225805 51 0 0.0 0.0 5.64 0.00 0.00 36 1018.1
20260508225307 51 0 0.0 0.0 5.64 0.00 0.00 37 1018.1
20260508224805 51 0 0.0 0.0 5.64 0.00 0.00 34 1018.1
20260508224305 51 0 0.0 0.0 5.64 0.00 0.00 33 1018.2
20260508223806 51 0 0.0 0.0 5.64 0.00 0.00 35 1018.2
20260508223305 51 0 0.0 0.0 5.64 0.00 0.00 34 1018.3
20260508222806 51 0 0.0 0.0 5.64 0.00 0.00 33 1018.2
20260508222306 52 0 0.0 0.0 5.64 0.00 0.00 36 1018.4
20260508221805 51 0 0.0 0.0 5.64 0.00 0.00 34 1018.3
20260508221307 51 0 0.0 0.0 5.64 0.00 0.00 36 1018.4
20260508220805 51 0 0.0 0.0 5.64 0.00 0.00 34 1018.4
20260508220305 51 0 0.0 0.0 5.64 0.00 0.00 38 1018.5
20260508215805 51 0 0.0 0.0 5.64 0.00 0.00 38 1018.5
20260508215306 51 0 0.0 0.0 5.64 0.00 0.00 38 1018.5
20260508214805 51 0 0.0 0.0 5.64 0.00 0.00 38 1018.5
20260508214305 51 0 0.0 0.0 5.64 0.00 0.00 35 1018.5
20260508213805 51 0 0.0 0.0 5.64 0.00 0.00 38 1018.6
20260508213305 51 0 0.0 0.0 5.64 0.00 0.00 37 1018.7
20260508212805 51 0 0.0 0.0 5.64 0.00 0.00 37 1018.8
20260508212306 51 283 0.0 3.0 5.64 0.00 0.00 35 1018.8
20260508211805 52 0 0.0 0.0 5.64 0.00 0.00 37 1018.8
20260508211305 52 283 1.0 3.0 5.64 0.00 0.00 37 1018.8
20260508210805 51 0 0.0 0.0 5.64 0.00 0.00 36 1018.9
20260508210305 51 274 11.0 18.0 5.64 0.00 0.00 36 1019.0
20260508205806 51 271 2.0 14.0 5.64 0.00 0.00 37 1019.0
20260508205308 50 0 0.0 0.0 5.64 0.00 0.00 36 1018.9
20260508204806 51 0 0.0 0.0 5.64 0.00 0.00 35 1018.9
20260508204306 51 0 0.0 0.0 5.64 0.00 0.00 36 1019.1
20260508203807 51 0 0.0 0.0 5.64 0.00 0.00 38 1019.2
20260508203305 51 0 0.0 0.0 5.64 0.00 0.00 39 1019.2
20260508202807 50 0 0.0 0.0 5.64 0.00 0.00 37 1019.2
20260508202307 50 0 0.0 0.0 5.64 0.00 0.00 38 1019.4
20260508201806 51 359 0.0 3.0 5.64 0.00 0.00 39 1019.4
20260508201305 51 0 0.0 0.0 5.64 0.00 0.00 41 1019.5
20260508200807 50 267 0.0 3.0 5.64 0.00 0.00 36 1019.5
20260508200305 51 0 0.0 0.0 5.64 0.00 0.00 34 1019.8
20260508195805 51 0 0.0 0.0 5.64 0.00 0.00 37 1019.6
20260508195306 51 0 0.0 0.0 5.64 0.00 0.00 39 1020.0
20260508194806 51 290 2.0 14.0 5.64 0.00 0.00 40 1020.1
20260508194305 50 0 0.0 0.0 5.64 0.00 0.00 37 1020.2
20260508193805 51 277 6.0 12.0 5.64 0.00 0.00 40 1020.3
20260508193307 50 278 12.0 17.0 5.64 0.00 0.00 42 1020.3
20260508192806 50 283 14.0 18.0 5.64 0.00 0.00 41 1020.4
20260508192306 50 269 16.0 21.0 5.64 0.00 0.00 41 1020.4
20260508191806 50 0 0.0 0.0 5.64 0.00 0.00 42 1020.5
20260508191305 50 297 0.0 4.0 5.64 0.00 0.00 41 1020.5
20260508190806 49 0 0.0 0.0 5.64 0.00 0.00 42 1020.7
20260508190306 49 0 0.0 0.0 5.64 0.00 0.00 42 1020.7
20260508185805 49 0 0.0 0.0 5.64 0.00 0.00 41 1020.7
20260508185306 49 0 0.0 0.0 5.64 0.00 0.00 42 1020.8
20260508184806 49 0 0.0 0.0 5.64 0.00 0.00 41 1020.9
20260508184305 50 0 0.0 0.0 5.64 0.00 0.00 42 1020.9
20260508183805 50 0 0.0 0.0 5.64 0.00 0.00 43 1021.0
20260508183307 49 42 5.0 15.0 5.64 0.00 0.00 46 1021.0
20260508182806 49 276 17.0 24.0 5.64 0.00 0.00 41 1020.9
20260508182307 49 0 0.0 0.0 5.64 0.00 0.00 42 1021.0
20260508181807 49 0 0.0 0.0 5.64 0.00 0.00 43 1021.1
20260508181306 49 0 0.0 0.0 5.64 0.00 0.00 43 1021.2
20260508180806 50 0 0.0 0.0 5.64 0.00 0.00 43 1021.3
20260508180306 49 309 1.0 9.0 5.64 0.00 0.00 47 1021.4
20260508175806 49 0 0.0 0.0 5.64 0.00 0.00 42 1021.5
20260508175306 49 0 0.0 0.0 5.64 0.00 0.00 47 1021.6
20260508174806 49 0 0.0 0.0 5.64 0.00 0.00 42 1021.6
20260508174307 48 0 0.0 0.0 5.64 0.00 0.00 42 1021.5
20260508173806 48 0 0.0 0.0 5.64 0.00 0.00 48 1021.5
20260508173306 48 0 0.0 0.0 5.64 0.00 0.00 47 1021.6
20260508172807 48 0 0.0 0.0 5.64 0.00 0.00 47 1021.7
20260508171307 48 0 0.0 0.0 5.64 0.00 0.00 47 1021.6
20260508170807 48 0 0.0 0.0 5.64 0.00 0.00 48 1021.8
20260508170307 48 0 0.0 0.0 5.64 0.00 0.00 47 1021.8
20260508165806 50 0 0.0 0.0 5.64 0.00 0.00 49 1022.0
20260508165307 39 0 0.0 0.0 5.64 0.00 0.00 51 1022.0
20260508164806 41 0 0.0 0.0 5.64 0.00 0.00 49 1022.2
20260508164306 41 0 0.0 0.0 5.64 0.00 0.00 51 1022.1
20260508163806 42 0 0.0 0.0 5.64 0.00 0.00 49 1022.1
20260508163306 45 0 0.0 0.0 5.64 0.00 0.00 48 1022.1
20260508162807 46 278 5.0 11.0 5.64 0.00 0.00 52 1022.2
20260508162307 46 0 0.0 0.0 5.64 0.00 0.00 51 1022.1
20260508161806 46 284 1.0 7.0 5.64 0.00 0.00 50 1022.5
20260508161306 47 58 8.0 15.0 5.64 0.00 0.00 43 1022.5
20260508160806 46 252 5.0 14.0 5.64 0.00 0.00 56 1022.6
20260508160306 46 0 0.0 0.0 5.64 0.00 0.00 55 1022.6
20260508155806 46 131 1.0 5.0 5.64 0.00 0.00 53 1022.6
20260508155306 45 0 0.0 0.0 5.64 0.00 0.00 56 1022.6
20260508154806 45 0 0.0 0.0 5.64 0.00 0.00 54 1022.6
20260508154306 46 0 0.0 0.0 5.64 0.00 0.00 53 1022.5
20260508153806 45 291 8.0 13.0 5.64 0.00 0.00 55 1022.6
20260508153306 44 285 2.0 8.0 5.64 0.00 0.00 57 1022.6
20260508152808 44 287 12.0 14.0 5.64 0.00 0.00 55 1022.7
20260508152306 45 0 0.0 0.0 5.64 0.00 0.00 60 1022.5
20260508151806 45 0 0.0 0.0 5.64 0.00 0.00 57 1022.6
20260508151306 45 0 0.0 0.0 5.64 0.00 0.00 57 1022.6
20260508150806 45 0 0.0 0.0 5.64 0.00 0.00 60 1022.7
20260508150306 44 0 0.0 0.0 5.64 0.00 0.00 59 1022.7
20260508145806 44 0 0.0 0.0 5.64 0.00 0.00 62 1022.7
20260508145307 44 0 0.0 0.0 5.64 0.00 0.00 63 1022.8
20260508144806 44 0 0.0 0.0 5.64 0.00 0.00 64 1022.8
20260508144306 43 0 0.0 0.0 5.64 0.00 0.00 65 1022.9
20260508143806 43 0 0.0 0.0 5.64 0.00 0.00 66 1023.0
20260508143306 43 0 0.0 0.0 5.64 0.00 0.00 67 1022.9
20260508142810 43 0 0.0 0.0 5.64 0.00 0.00 67 1023.0
20260508142307 43 0 0.0 0.0 5.64 0.00 0.00 68 1023.0
20260508141806 43 0 0.0 0.0 5.64 0.00 0.00 22 1023.1
20260508141306 42 0 0.0 0.0 5.64 0.00 0.00 69 1023.2
20260508140806 42 0 0.0 0.0 5.64 0.00 0.00 19 1023.3
20260508140308 42 0 0.0 0.0 5.64 0.00 0.00 71 1023.3
20260508135808 42 330 0.0 3.0 5.64 0.00 0.00 77 1023.3
20260508135306 41 0 0.0 0.0 5.64 0.00 0.00 34 1023.3
20260508134806 41 0 0.0 0.0 5.64 0.00 0.00 77 1023.3
20260508134306 41 0 0.0 0.0 5.64 0.00 0.00 78 1023.4
20260508133806 41 0 0.0 0.0 5.64 0.00 0.00 80 1023.4
20260508133306 40 0 0.0 0.0 5.64 0.00 0.00 83 1023.3
20260508132806 40 0 0.0 0.0 5.64 0.00 0.00 84 1023.2
20260508132307 40 0 0.0 0.0 5.64 0.00 0.00 86 1023.3
20260508131806 40 0 0.0 0.0 5.64 0.00 0.00 88 1023.5
20260508131307 39 0 0.0 0.0 5.64 0.00 0.00 88 1023.5
20260508130809 39 0 0.0 0.0 5.64 0.00 0.00 88 1023.4
20260508130307 39 0 0.0 0.0 5.64 0.00 0.00 90 1023.5
20260508125808 39 0 0.0 0.0 5.64 0.00 0.00 91 1023.4
20260508125306 39 0 0.0 0.0 5.64 0.00 0.00 91 1023.8
20260508124806 39 0 0.0 0.0 5.64 0.00 0.00 91 1023.5
20260508124308 38 0 0.0 0.0 5.64 0.00 0.00 92 1023.5
20260508123809 38 0 0.0 0.0 5.64 0.00 0.00 93 1023.6
20260508123306 38 0 0.0 0.0 5.64 0.00 0.00 93 1023.4
20260508122806 38 0 0.0 0.0 5.64 0.00 0.00 93 1023.5
20260508122307 38 0 0.0 0.0 5.64 0.00 0.00 93 1023.5
20260508121806 37 0 0.0 0.0 5.64 0.00 0.00 94 1023.7
20260508121306 37 0 0.0 0.0 5.64 0.00 0.00 94 1023.6
20260508120808 37 0 0.0 0.0 5.64 0.00 0.00 94 1023.7
20260508120307 36 0 0.0 0.0 5.64 0.00 0.00 95 1023.7
20260508115808 36 0 0.0 0.0 5.64 0.00 0.00 95 1023.6
20260508115307 36 0 0.0 0.0 5.64 0.00 0.00 95 1023.6
20260508114808 36 0 0.0 0.0 5.64 0.00 0.00 96 1023.7
20260508114306 36 0 0.0 0.0 5.64 0.00 0.00 96 1023.6
20260508113806 36 0 0.0 0.0 5.64 0.00 0.00 96 1023.5
20260508113307 36 0 0.0 0.0 5.64 0.00 0.00 96 1023.5
20260508112807 36 0 0.0 0.0 5.64 0.00 0.00 96 1023.3
20260508112307 35 0 0.0 0.0 5.64 0.00 0.00 96 1023.4
20260508111806 35 0 0.0 0.0 5.64 0.00 0.00 96 1023.2
20260508111307 36 0 0.0 0.0 5.64 0.00 0.00 97 1023.5
20260508110807 36 0 0.0 0.0 5.64 0.00 0.00 96 1023.2
20260508110307 35 0 0.0 0.0 5.64 0.00 0.00 96 1023.1
20260508105807 35 0 0.0 0.0 5.64 0.00 0.00 96 1023.1
20260508105308 35 0 0.0 0.0 5.64 0.00 0.00 96 1023.1
20260508104807 35 0 0.0 0.0 5.64 0.00 0.00 96 1023.2
20260508104307 35 0 0.0 0.0 5.64 0.00 0.00 96 1022.9
20260508103807 35 0 0.0 0.0 5.64 0.00 0.00 97 1022.9
20260508103307 35 0 0.0 0.0 5.64 0.00 0.00 97 1023.0
20260508102807 35 0 0.0 0.0 5.64 0.00 0.00 97 1022.7
20260508102308 35 0 0.0 0.0 5.64 0.00 0.00 96 1023.0
20260508101807 35 0 0.0 0.0 5.64 0.00 0.00 96 1023.0
20260508101308 35 0 0.0 0.0 5.64 0.00 0.00 96 1022.9
20260508100807 35 0 0.0 0.0 5.64 0.00 0.00 96 1022.8
20260508100358 35 0 0.0 0.0 5.64 0.00 0.00 96 1022.8
20260508100307 35 0 0.0 0.0 5.64 0.00 0.00 96 1022.8
20260508095807 35 0 0.0 0.0 5.64 0.00 0.00 96 1022.8
20260508095307 35 0 0.0 0.0 5.64 0.00 0.00 96 1022.7
20260508094807 35 0 0.0 0.0 5.64 0.00 0.00 96 1022.6
20260508094307 35 0 0.0 0.0 5.64 0.00 0.00 96 1022.5
20260508093807 35 0 0.0 0.0 5.64 0.00 0.00 96 1022.7
20260508093307 35 0 0.0 0.0 5.64 0.00 0.00 96 1022.6
20260508092808 35 0 0.0 0.0 5.64 0.00 0.00 94 1022.7
20260508092313 35 0 0.0 0.0 5.64 0.00 0.00 94 1022.5
20260508091809 35 0 0.0 0.0 5.64 0.00 0.00 94 1022.3
20260508091307 35 0 0.0 0.0 5.64 0.00 0.00 94 1022.5
20260508090807 35 0 0.0 0.0 5.64 0.00 0.00 94 1022.3
20260508090307 35 0 0.0 0.0 5.64 0.00 0.00 93 1022.3
20260508085807 35 0 0.0 0.0 5.64 0.00 0.00 93 1022.3
20260508085307 35 0 0.0 0.0 5.64 0.00 0.00 93 1022.2
20260508084807 35 0 0.0 0.0 5.64 0.00 0.00 92 1022.2
20260508084307 35 0 0.0 0.0 5.64 0.00 0.00 92 1022.2
20260508083810 36 0 0.0 0.0 5.64 0.00 0.00 91 1022.6
20260508083307 36 0 0.0 0.0 5.64 0.00 0.00 90 1022.5
20260508082807 36 0 0.0 0.0 5.64 0.00 0.00 90 1022.6
20260508082307 36 0 0.0 0.0 5.64 0.00 0.00 91 1022.5
20260508081807 36 0 0.0 0.0 5.64 0.00 0.00 92 1022.7
20260508081307 36 0 0.0 0.0 5.64 0.00 0.00 92 1022.5
20260508080807 36 0 0.0 0.0 5.64 0.00 0.00 91 1022.6
20260508080307 36 0 0.0 0.0 5.64 0.00 0.00 91 1022.6
20260508075807 36 0 0.0 0.0 5.64 0.00 0.00 90 1022.6
20260508075309 36 330 1.0 5.0 5.64 0.00 0.00 94 1022.5
20260508074807 36 0 0.0 0.0 5.64 0.00 0.00 91 1022.6
20260508074309 36 330 0.0 3.0 5.64 0.00 0.00 92 1022.7
20260508073807 36 0 0.0 0.0 5.64 0.00 0.00 94 1022.6
20260508073307 36 0 0.0 0.0 5.64 0.00 0.00 85 1022.5
20260508072808 36 0 0.0 0.0 5.64 0.00 0.00 84 1022.3
20260508072308 36 0 0.0 0.0 5.64 0.00 0.00 82 1022.2
20260508071807 36 0 0.0 0.0 5.64 0.00 0.00 87 1022.3
20260508071308 36 0 0.0 0.0 5.64 0.00 0.00 84 1022.5
20260508070807 36 0 0.0 0.0 5.64 0.00 0.00 82 1022.6
20260508070307 36 0 0.0 0.0 5.64 0.00 0.00 81 1022.6
20260508065808 35 0 0.0 0.0 5.64 0.00 0.00 80 1022.6
20260508065308 36 0 0.0 0.0 5.64 0.00 0.00 79 1022.6
20260508064807 36 0 0.0 0.0 5.64 0.00 0.00 75 1022.6
20260508064307 36 0 0.0 0.0 5.64 0.00 0.00 74 1022.6
20260508063808 36 0 0.0 0.0 5.64 0.00 0.00 74 1022.6
20260508063308 36 0 0.0 0.0 5.64 0.00 0.00 74 1022.6
20260508062808 36 0 0.0 0.0 5.64 0.00 0.00 75 1022.6
20260508062307 37 0 0.0 0.0 5.64 0.00 0.00 74 1022.8
20260508061807 38 0 0.0 0.0 5.64 0.00 0.00 70 1022.9
20260508061308 37 0 0.0 0.0 5.64 0.00 0.00 68 1022.8
20260508060807 36 0 0.0 0.0 5.64 0.00 0.00 69 1022.7
20260508060307 37 0 0.0 0.0 5.64 0.00 0.00 72 1022.8
20260508055808 35 0 0.0 0.0 5.64 0.00 0.00 76 1022.9
20260508055307 36 0 0.0 0.0 5.64 0.00 0.00 76 1022.8
20260508054808 36 0 0.0 0.0 5.64 0.00 0.00 72 1022.9
20260508054308 36 0 0.0 0.0 5.64 0.00 0.00 72 1022.9
20260508053809 37 0 0.0 0.0 5.64 0.00 0.00 70 1023.1
20260508053308 38 0 0.0 0.0 5.64 0.00 0.00 68 1022.9
20260508052809 38 0 0.0 0.0 5.64 0.00 0.00 68 1023.1
20260508052311 38 0 0.0 0.0 5.64 0.00 0.00 68 1023.1
20260508051807 38 0 0.0 0.0 5.64 0.00 0.00 68 1022.9
20260508051310 38 0 0.0 0.0 5.64 0.00 0.00 68 1022.9
20260508050807 37 0 0.0 0.0 5.64 0.00 0.00 69 1023.0
20260508050309 37 0 0.0 0.0 5.64 0.00 0.00 70 1023.0
20260508045809 37 0 0.0 0.0 5.64 0.00 0.00 70 1022.9
20260508045308 36 0 0.0 0.0 5.64 0.00 0.00 71 1023.0
20260508044807 36 0 0.0 0.0 5.64 0.00 0.00 70 1023.0
20260508044307 37 0 0.0 0.0 5.64 0.00 0.00 70 1022.9
20260508043807 36 0 0.0 0.0 5.64 0.00 0.00 70 1022.9
20260508043309 37 0 0.0 0.0 5.64 0.00 0.00 69 1022.9
20260508042808 37 0 0.0 0.0 5.64 0.00 0.00 69 1022.8
20260508042308 36 0 0.0 0.0 5.64 0.00 0.00 69 1022.8
20260508041807 36 0 0.0 0.0 5.64 0.00 0.00 70 1022.7
20260508041308 36 0 0.0 0.0 5.64 0.00 0.00 70 1022.8
20260508040808 37 0 0.0 0.0 5.64 0.00 0.00 70 1022.7
20260508040308 37 0 0.0 0.0 5.64 0.00 0.00 70 1022.8
20260508035808 37 0 0.0 0.0 5.64 0.00 0.00 70 1022.7
20260508035308 36 0 0.0 0.0 5.64 0.00 0.00 70 1022.6
20260508034808 36 0 0.0 0.0 5.64 0.00 0.00 71 1022.6
20260508034308 37 0 0.0 0.0 5.64 0.00 0.00 71 1022.7
20260508033808 37 0 0.0 0.0 5.64 0.00 0.00 71 1022.6
20260508033308 37 0 0.0 0.0 5.64 0.00 0.00 71 1022.5
20260508032808 37 0 0.0 0.0 5.64 0.00 0.00 71 1022.6
20260508032308 37 0 0.0 0.0 5.64 0.00 0.00 71 1022.6
20260508031808 37 0 0.0 0.0 5.64 0.00 0.00 71 1022.5
20260508031308 37 0 0.0 0.0 5.64 0.00 0.00 70 1022.6
20260508030808 37 0 0.0 0.0 5.64 0.00 0.00 70 1022.6
20260508030311 37 0 0.0 0.0 5.64 0.00 0.00 70 1022.5
20260508025808 37 0 0.0 0.0 5.64 0.00 0.00 70 1022.5
20260508025308 37 0 0.0 0.0 5.64 0.00 0.00 70 1022.6
20260508024809 37 0 0.0 0.0 5.64 0.00 0.00 70 1022.6
20260508024308 37 0 0.0 0.0 5.64 0.00 0.00 70 1022.6
20260508023808 37 0 0.0 0.0 5.64 0.00 0.00 70 1022.6
20260508023308 37 0 0.0 0.0 5.64 0.00 0.00 70 1022.7
20260508022809 38 0 0.0 0.0 5.64 0.00 0.00 70 1022.7
20260508022308 38 0 0.0 0.0 5.64 0.00 0.00 70 1022.7
20260508021808 38 0 0.0 0.0 5.64 0.00 0.00 70 1022.7
20260508021308 38 0 0.0 0.0 5.64 0.00 0.00 70 1022.6
20260508020808 38 0 0.0 0.0 5.64 0.00 0.00 70 1022.5
20260508020308 38 0 0.0 0.0 5.64 0.00 0.00 70 1022.5
20260508015808 38 0 0.0 0.0 5.64 0.00 0.00 70 1022.6
20260508015308 38 0 0.0 0.0 5.64 0.00 0.00 70 1022.5
20260508014808 38 0 0.0 0.0 5.64 0.00 0.00 70 1022.5
20260508014309 39 0 0.0 0.0 5.64 0.00 0.00 70 1022.3
20260508013808 39 0 0.0 0.0 5.64 0.00 0.00 70 1022.2
20260508013308 39 0 0.0 0.0 5.64 0.00 0.00 69 1022.1
20260508012809 39 0 0.0 0.0 5.64 0.00 0.00 69 1022.1
20260508012308 39 0 0.0 0.0 5.64 0.00 0.00 69 1022.0
20260508011809 39 0 0.0 0.0 5.64 0.00 0.00 70 1021.9
20260508011308 39 0 0.0 0.0 5.64 0.00 0.00 70 1021.8